FW6537 Weather Reports


time (UTC)temp
F
wind
direction
speed
knots
gust
knots
rain 1hr
in
rain 24hr
in
rain mn
in
humidity
%
barometer
mb
20260503191639 56 75 2.6 10.4 0.00 0.00 0.00 42 1009.4
20260503190133 56 57 3.5 11.3 0.00 0.00 0.00 41 1009.4
20260503184630 56 98 1.7 5.2 0.00 0.00 0.00 40 1009.7
20260503183125 56 127 3.5 8.7 0.00 0.00 0.00 40 1009.9
20260503181636 55 196 2.6 6.1 0.00 0.00 0.00 39 1010.1
20260503180146 53 77 2.6 9.6 0.00 0.00 0.00 40 1010.2
20260503174638 53 98 0.9 8.7 0.00 0.00 0.00 38 1010.5
20260503173152 54 115 3.5 7.0 0.00 0.00 0.00 39 1010.6
20260503171640 52 72 2.6 7.0 0.00 0.00 0.00 40 1010.7
20260503170136 53 93 2.6 7.8 0.00 0.00 0.00 38 1011.0
20260503160127 52 179 1.7 6.1 0.00 0.00 0.00 44 1011.8
20260503140129 47 84 3.5 9.6 0.00 0.00 0.00 55 1012.6
20260503130207 44 117 1.7 7.0 0.00 0.00 0.00 69 1012.9
20260503120128 41 122 0.9 7.0 0.00 0.00 0.00 73 1012.6
20260503110125 39 100 0.9 4.3 0.00 0.00 0.00 80 1012.2
20260503100133 39 105 0.0 0.9 0.00 0.00 0.00 80 1012.0
20260503090126 40 94 0.9 1.7 0.00 0.00 0.00 79 1012.1
20260503080126 40 95 0.0 1.7 0.00 0.00 0.00 78 1012.0
20260503071633 40 94 0.0 3.5 0.00 0.01 0.00 80 1012.1
20260503070129 40 88 0.0 4.3 0.00 0.01 0.00 80 1012.1
20260503060131 37 126 0.0 0.0 0.00 0.01 0.00 90 1012.3
20260503054623 36 126 0.0 0.0 0.00 0.01 0.00 90 1012.2
20260503053157 36 126 0.0 0.0 0.00 0.01 0.00 90 1012.4
20260503051634 36 126 0.0 0.0 0.00 0.01 0.00 90 1012.7
20260503050128 35 126 0.0 0.0 0.00 0.01 0.00 90 1012.8
20260503044641 35 126 0.0 0.0 0.00 0.01 0.00 90 1012.9
20260503043136 34 126 0.0 0.0 0.00 0.01 0.00 90 1013.0
20260503041628 34 126 0.0 0.0 0.00 0.01 0.00 89 1013.1
20260503040124 34 126 0.0 0.0 0.00 0.01 0.00 88 1013.1
20260503034641 34 126 0.0 0.0 0.00 0.03 0.01 89 1013.2
20260503033143 34 126 0.0 0.0 0.00 0.03 0.01 89 1013.3
20260503031640 34 126 0.0 0.0 0.00 0.03 0.01 88 1013.3
20260503030135 35 126 0.0 0.0 0.00 0.03 0.01 87 1013.3
20260503024631 35 126 0.0 0.0 0.00 0.07 0.01 85 1013.4
20260503023142 36 126 0.0 0.0 0.00 0.07 0.01 84 1013.4
20260503021628 37 126 0.0 0.0 0.00 0.07 0.01 82 1013.4
20260503020140 38 127 0.0 0.0 0.00 0.07 0.01 80 1013.7
20260503014629 38 126 0.0 0.0 0.00 0.09 0.01 78 1013.7
20260503013130 39 127 0.0 1.7 0.00 0.09 0.01 77 1013.7
20260503011624 39 116 0.0 0.0 0.00 0.09 0.01 76 1013.6
20260503010139 39 116 0.0 0.0 0.00 0.09 0.01 75 1013.5
20260503004655 40 116 0.0 0.0 0.00 0.14 0.01 72 1013.1
20260503003132 41 115 0.0 0.9 0.00 0.14 0.01 70 1013.0
20260503001652 42 116 0.0 0.9 0.00 0.14 0.01 68 1013.1
20260503000146 43 108 0.0 3.5 0.00 0.14 0.01 67 1013.0
20260502234641 44 104 0.0 0.9 0.00 0.17 0.01 66 1012.8
20260502233139 44 184 0.9 4.3 0.00 0.17 0.01 64 1012.6
20260502231638 45 53 2.6 7.8 0.00 0.17 0.01 61 1012.6
20260502230130 45 95 2.6 6.1 0.00 0.17 0.01 60 1012.7
20260502224622 45 107 1.7 6.1 0.00 0.18 0.01 60 1012.5
20260502223208 46 141 0.9 7.0 0.00 0.18 0.01 61 1012.5
20260502221637 46 74 2.6 7.8 0.00 0.18 0.01 59 1012.6
20260502220137 46 58 1.7 5.2 0.00 0.18 0.01 60 1012.5
20260502214634 46 151 1.7 6.1 0.00 0.18 0.01 59 1012.3
20260502213153 46 104 0.9 5.2 0.00 0.18 0.01 58 1012.3
20260502211634 47 108 0.9 7.0 0.00 0.18 0.01 56 1012.3
20260502210135 47 84 1.7 6.1 0.00 0.18 0.01 56 1012.2
20260502204634 47 99 2.6 5.2 0.00 0.18 0.01 57 1012.3
20260502201638 46 95 0.9 4.3 0.00 0.18 0.01 61 1012.4
20260502200135 46 97 0.9 3.5 0.00 0.18 0.01 61 1012.6
20260502194627 46 145 0.9 2.6 0.00 0.18 0.01 61 1012.6
20260502193147 47 115 0.9 4.3 0.00 0.18 0.01 60 1012.9